This is the latest recevied weather packets stored in our database for station/object K5YNC. If no packets are shown the sender has not sent any weather packets the latest 10 day(s).
| Time | Temp. | Humidity | Pressure | Rain* | Wind** | Luminosity | Snow |
|---|---|---|---|---|---|---|---|
| 1777128127 | 20.56° C | 89% | 1009.2 hPa | 0 mm | - | 115 W/m² | - |
| 1777127824 | 20° C | 89% | 1009.1 hPa | 0 mm | - | 121 W/m² | - |
| 1777127521 | 20° C | 90% | 1008.8 hPa | 0 mm | - | 97 W/m² | - |
| 1777127217 | 20° C | 90% | 1009.1 hPa | 0 mm | - | 126 W/m² | - |
| 1777126913 | 19.44° C | 90% | 1009 hPa | 0 mm | - | 150 W/m² | - |
| 1777126609 | 19.44° C | 90% | 1009 hPa | 0 mm | - | 106 W/m² | - |
| 1777126305 | 19.44° C | 90% | 1009 hPa | 0 mm | - | 108 W/m² | - |
| 1777126001 | 19.44° C | 90% | 1009.1 hPa | 0 mm | - | 95 W/m² | - |
| 1777125699 | 19.44° C | 90% | 1009.3 hPa | 0 mm | - | 94 W/m² | - |
| 1777125394 | 18.89° C | 90% | 1009.2 hPa | 0 mm | - | 93 W/m² | - |
| 1777125089 | 18.89° C | 90% | 1009.2 hPa | 0 mm | - | 59 W/m² | - |
| 1777124785 | 18.89° C | 90% | 1009.1 hPa | 0 mm | - | 69 W/m² | - |
| 1777124481 | 18.89° C | 91% | 1009.2 hPa | 0 mm | - | 72 W/m² | - |
| 1777124178 | 18.89° C | 91% | 1009 hPa | 0 mm | - | 85 W/m² | - |
| 1777123875 | 18.89° C | 91% | 1009.2 hPa | 0 mm | - | 56 W/m² | - |
| 1777123571 | 18.33° C | 91% | 1009.3 hPa | 0 mm | - | 43 W/m² | - |
| 1777123267 | 18.33° C | 92% | 1009.2 hPa | 0 mm | - | 49 W/m² | - |
| 1777122963 | 18.33° C | 92% | 1009 hPa | 0 mm | - | 58 W/m² | - |
| 1777122660 | 18.33° C | 92% | 1009.1 hPa | 0 mm | - | 54 W/m² | - |
| 1777122355 | 17.78° C | 92% | 1009.3 hPa | 0 mm | - | 52 W/m² | - |
| 1777122052 | 17.78° C | 93% | 1009.2 hPa | 0 mm | - | 43 W/m² | - |
| 1777121748 | 17.78° C | 93% | 1009.3 hPa | 0 mm | - | 32 W/m² | - |
| 1777121446 | 17.78° C | 93% | 1009.2 hPa | 0 mm | - | 30 W/m² | - |
| 1777121145 | 17.78° C | 93% | 1009.3 hPa | 0 mm | - | 25 W/m² | - |
| 1777120843 | 17.78° C | 93% | 1009.2 hPa | 0 mm | - | 22 W/m² | - |
* Rain latest hour (hover to see other rain measurements)
** Current wind speed in m/s (hover to see current wind gust speed)